Los Angeles, CA

10:34 AM PDT on May 21, 2018 (GMT -0700)
Los Angeles International

Weather History for KLAX - September, 2013

Change the Weather History Date:

Friday, September 6, 2013

  Actual Average Record
Temperature  
Mean Temperature 77 °F 70 °F  
Max Temperature 84 °F 75 °F 94 °F (1984)
Min Temperature 70 °F 64 °F 55 °F (1946)
Degree Days  
Heating Degree Days 0 0  
Month to date heating degree days 0 0  
Since 1 July heating degree days 1 4  
Cooling Degree Days 12 5  
Month to date cooling degree days 61 30  
Year to date cooling degree days 491 376  
Growing Degree Days 27 (Base 50)    
Moisture  
Dew Point 62 °F    
Average Humidity 63    
Maximum Humidity 79    
Minimum Humidity 47    
Precipitation  
Precipitation 0.00 in 0.00 in 0.02 in (1965)
Month to date precipitation 0.00 0.01  
Year to date precipitation 2.64 8.90  
Since 1 July precipitation 0.03  
Sea Level Pressure  
Sea Level Pressure 29.83 in    
Wind  
Wind Speed 6 mph (West)    
Max Wind Speed 18 mph    
Max Gust Speed 22 mph    
Visibility 10 miles    
Events      
T = Trace of Precipitation, MM = Missing Value Source: NWS Daily Summary

Daily Weather History Graph

Daily Weather History Graph

Search for Another Location

Airport or City:

Astronomy

Sep. 06, 2013 Rise Set
Actual Time 6:30 AM PDT 7:12 PM PDT
Civil Twilight 6:05 AM PDT 7:37 PM PDT
Nautical Twilight 5:35 AM PDT 8:07 PM PDT
Astronomical Twilight 5:05 AM PDT 8:37 PM PDT
Moon 7:42 AM PDT (9/6) 7:46 PM PDT (9/6)
Length of Visible Light 13h 31m
Length of Day
12h 41m
New Moon, 2% of the Moon is Illuminated
Sep 6
New Moon
Sep 12
First Quarter
Sep 19
Full
Sep 26
Last Quarter
Oct 4
New

Hourly Weather History & Observations

Time (PDT) Temp. Heat Index Dew Point Humidity Pressure Visibility Wind Dir Wind Speed Gust Speed Precip Events Conditions
12:53 AM 72.0 °F - 64.0 °F 76% 29.86 in 10.0 mi Calm Calm - N/A   Clear
1:53 AM 71.1 °F - 64.0 °F 78% 29.84 in 10.0 mi Calm Calm - N/A   Clear
2:53 AM 72.0 °F - 63.0 °F 73% 29.83 in 10.0 mi Calm Calm - N/A   Clear
3:53 AM 72.0 °F - 62.1 °F 71% 29.83 in 10.0 mi Calm Calm - N/A   Clear
4:53 AM 73.0 °F - 62.1 °F 68% 29.83 in 10.0 mi Calm Calm - N/A   Clear
5:53 AM 72.0 °F - 62.1 °F 71% 29.84 in 10.0 mi Calm Calm - N/A   Partly Cloudy
7:53 AM 75.9 °F - 63.0 °F 64% 29.86 in 10.0 mi Calm Calm - N/A   Scattered Clouds
8:53 AM 80.1 °F 81.2 °F 62.1 °F 54% 29.86 in 10.0 mi Calm Calm - N/A   Scattered Clouds
9:53 AM 81.0 °F 82.5 °F 64.0 °F 56% 29.87 in 10.0 mi West 10.4 mph - N/A   Scattered Clouds
10:53 AM 80.1 °F 81.5 °F 63.0 °F 56% 29.87 in 10.0 mi West 8.1 mph - N/A   Scattered Clouds
11:53 AM 82.9 °F 83.3 °F 61.0 °F 47% 29.86 in 10.0 mi West 9.2 mph - N/A   Scattered Clouds
12:53 PM 82.0 °F 82.7 °F 61.0 °F 49% 29.85 in 10.0 mi West 11.5 mph - N/A   Scattered Clouds
1:53 PM 80.1 °F 80.9 °F 60.1 °F 50% 29.83 in 10.0 mi West 15.0 mph - N/A   Scattered Clouds
2:53 PM 79.0 °F - 60.1 °F 52% 29.81 in 10.0 mi West 13.8 mph - N/A   Scattered Clouds
3:53 PM 77.0 °F - 59.0 °F 54% 29.80 in 10.0 mi West 16.1 mph - N/A   Scattered Clouds
4:53 PM 77.0 °F - 59.0 °F 54% 29.79 in 10.0 mi West 13.8 mph - N/A   Scattered Clouds
5:53 PM 75.0 °F - 60.1 °F 60% 29.78 in 10.0 mi West 11.5 mph - N/A   Scattered Clouds
6:53 PM 75.9 °F - 60.1 °F 58% 29.79 in 10.0 mi WSW 8.1 mph - N/A   Scattered Clouds
7:53 PM 73.9 °F - 60.1 °F 62% 29.80 in 10.0 mi WSW 5.8 mph - N/A   Partly Cloudy
8:53 PM 71.1 °F - 63.0 °F 75% 29.81 in 10.0 mi West 8.1 mph - N/A   Partly Cloudy
9:53 PM 70.0 °F - 63.0 °F 78% 29.82 in 10.0 mi WSW 4.6 mph - N/A   Partly Cloudy
10:53 PM 70.0 °F - 63.0 °F 78% 29.83 in 10.0 mi West 4.6 mph - N/A   Partly Cloudy
11:53 PM 71.1 °F - 63.0 °F 75% 29.83 in 10.0 mi Calm Calm - N/A   Partly Cloudy